When you browse on this site, cookies collect data to enhance your experience and personalize the content and advertising you see.
Visit our Privacy Policy to learn more. By continuing to use the site, you agree to this use of cookies and data.
  • în România
  • Lista ţărilor
  • Pe 7 zile
  • Temperatura apei
  • Hartă satelitară
  • Meteo pe hartă
  • Widget-uri
  • user-avatar
    Intrare

    Meteo pe oră la Buzău

    Astăzi, 26 Iunie, Miercuri

    Timp Temperatura Precipitaţii Vânt Presiune Umiditate
    00:00 +23°C° 0 mm 6 m/s 759 mmHg 77%
    01:00 +23°C° 0 mm 6 m/s 759 mmHg 79%
    02:00 +23°C° 0 mm 6 m/s 759 mmHg 80%
    03:00 +22°C° 0 mm 6 m/s 759 mmHg 79%
    04:00 +22°C° 0 mm 6 m/s 759 mmHg 77%
    05:00 +22°C° 0 mm 5 m/s 759 mmHg 76%
    06:00 +23°C° 0 mm 6 m/s 759 mmHg 71%
    07:00 +24°C° 0 mm 7 m/s 760 mmHg 67%
    08:00 +26°C° 0 mm 8 m/s 760 mmHg 62%
    09:00 +27°C° 0 mm 8 m/s 760 mmHg 59%
    10:00 +28°C° 0 mm 8 m/s 760 mmHg 55%
    11:00 +29°C° 0 mm 8 m/s 760 mmHg 52%
    12:00 +29°C° 0 mm 7 m/s 759 mmHg 50%
    13:00 +30°C° 0 mm 7 m/s 759 mmHg 49%
    14:00 +30°C° 0 mm 7 m/s 759 mmHg 47%
    15:00 +30°C° 0 mm 7 m/s 759 mmHg 48%
    16:00 +30°C° 0 mm 6 m/s 758 mmHg 49%
    17:00 +30°C° 0 mm 6 m/s 758 mmHg 50%
    18:00 +28°C° 0 mm 5 m/s 758 mmHg 55%
    19:00 +26°C° 0 mm 4 m/s 758 mmHg 59%
    20:00 +24°C° 0 mm 3 m/s 758 mmHg 64%
    21:00 +24°C° 0 mm 3 m/s 758 mmHg 65%
    22:00 +22°C° 0 mm 3 m/s 758 mmHg 66%
    23:00 +23°C° 0 mm 2 m/s 758 mmHg 67%

    Mâine, 27 Iunie, Joi

    Timp Temperatura Precipitaţii Vânt Presiune Umiditate
    00:00 +21°C° 0 mm 2 m/s 757 mmHg 69%
    01:00 +22°C° 0 mm 1 m/s 757 mmHg 70%
    02:00 +21°C° 0 mm 1 m/s 757 mmHg 72%
    03:00 +21°C° 0 mm 1 m/s 757 mmHg 73%
    04:00 +21°C° 0 mm 1 m/s 756 mmHg 74%
    05:00 +21°C° 0 mm 1 m/s 756 mmHg 75%
    06:00 +23°C° 0 mm 1 m/s 755 mmHg 69%
    07:00 +25°C° 0 mm 2 m/s 755 mmHg 64%
    08:00 +27°C° 0 mm 2 m/s 755 mmHg 58%
    09:00 +28°C° 0 mm 2 m/s 755 mmHg 55%
    10:00 +30°C° 0 mm 3 m/s 754 mmHg 52%
    11:00 +31°C° 0 mm 3 m/s 753 mmHg 48%
    12:00 +34°C° 0 mm 3 m/s 753 mmHg 44%
    13:00 +35°C° 0 mm 3 m/s 752 mmHg 40%
    14:00 +36°C° 0 mm 3 m/s 752 mmHg 36%
    15:00 +36°C° 0 mm 3 m/s 751 mmHg 37%
    16:00 +36°C° 0 mm 3 m/s 750 mmHg 38%
    17:00 +35°C° 0 mm 4 m/s 750 mmHg 39%
    18:00 +33°C° 0 mm 3 m/s 749 mmHg 45%
    19:00 +30°C° 0 mm 3 m/s 749 mmHg 51%
    20:00 +28°C° 0 mm 3 m/s 749 mmHg 57%
    21:00 +27°C° 0.1 mm 3 m/s 749 mmHg 64%
    22:00 +26°C° 0.1 mm 3 m/s 749 mmHg 71%
    23:00 +25°C° 0.1 mm 4 m/s 749 mmHg 78%

    Poimâine, 28 Iunie, Vineri

    Timp Temperatura Precipitaţii Vânt Presiune Umiditate
    00:00 +23°C° 0.1 mm 5 m/s 749 mmHg 74%
    01:00 +22°C° 0.1 mm 6 m/s 749 mmHg 70%
    02:00 +22°C° 0.1 mm 7 m/s 749 mmHg 66%
    03:00 +21°C° 0 mm 7 m/s 749 mmHg 65%
    04:00 +21°C° 0 mm 7 m/s 750 mmHg 64%
    05:00 +20°C° 0 mm 8 m/s 750 mmHg 64%
    06:00 +21°C° 0 mm 7 m/s 750 mmHg 62%
    07:00 +22°C° 0 mm 7 m/s 750 mmHg 61%
    08:00 +22°C° 0 mm 7 m/s 750 mmHg 59%
    09:00 +23°C° 0 mm 7 m/s 750 mmHg 56%
    10:00 +26°C° 0 mm 7 m/s 750 mmHg 52%
    11:00 +27°C° 0 mm 6 m/s 751 mmHg 48%
    12:00 +27°C° 0 mm 6 m/s 750 mmHg 49%
    13:00 +26°C° 0 mm 6 m/s 750 mmHg 50%
    14:00 +26°C° 0 mm 6 m/s 750 mmHg 51%
    15:00 +24°C° 0 mm 7 m/s 750 mmHg 52%
    16:00 +24°C° 0 mm 7 m/s 750 mmHg 53%
    17:00 +23°C° 0 mm 7 m/s 750 mmHg 54%
    18:00 +21°C° 0 mm 7 m/s 751 mmHg 55%
    19:00 +20°C° 0 mm 6 m/s 752 mmHg 55%
    20:00 +19°C° 0 mm 6 m/s 752 mmHg 56%
    21:00 +17°C° 0 mm 5 m/s 753 mmHg 58%
    22:00 +18°C° 0 mm 4 m/s 753 mmHg 60%
    23:00 +17°C° 0 mm 3 m/s 753 mmHg 62%

    29 Iunie, Sâmbătă

    Timp Temperatura Precipitaţii Vânt Presiune Umiditate
    00:00 +17°C° 0 mm 3 m/s 753 mmHg 63%
    01:00 +17°C° 0 mm 3 m/s 753 mmHg 65%
    02:00 +16°C° 0 mm 2 m/s 753 mmHg 66%
    03:00 +16°C° 0 mm 2 m/s 754 mmHg 69%
    04:00 +15°C° 0 mm 2 m/s 754 mmHg 72%
    05:00 +15°C° 0 mm 2 m/s 754 mmHg 74%
    06:00 +17°C° 0 mm 2 m/s 754 mmHg 68%
    07:00 +19°C° 0 mm 2 m/s 754 mmHg 62%
    08:00 +20°C° 0 mm 2 m/s 754 mmHg 55%
    09:00 +21°C° 0 mm 2 m/s 754 mmHg 52%
    10:00 +23°C° 0 mm 2 m/s 754 mmHg 49%
    11:00 +24°C° 0 mm 3 m/s 754 mmHg 45%
    12:00 +24°C° 0 mm 3 m/s 753 mmHg 47%
    13:00 +23°C° 0 mm 4 m/s 753 mmHg 49%
    14:00 +22°C° 0 mm 5 m/s 753 mmHg 51%
    15:00 +22°C° 0 mm 5 m/s 753 mmHg 52%
    16:00 +21°C° 0 mm 4 m/s 753 mmHg 54%
    17:00 +21°C° 0 mm 4 m/s 753 mmHg 55%
    18:00 +20°C° 0 mm 4 m/s 753 mmHg 55%
    19:00 +19°C° 0 mm 4 m/s 754 mmHg 56%
    20:00 +18°C° 0 mm 4 m/s 754 mmHg 57%
    21:00 +18°C° 0 mm 4 m/s 755 mmHg 56%
    22:00 +18°C° 0 mm 4 m/s 755 mmHg 55%
    23:00 +17°C° 0 mm 4 m/s 756 mmHg 55%

    30 Iunie, Duminică

    Timp Temperatura Precipitaţii Vânt Presiune Umiditate
    00:00 +17°C° 0 mm 4 m/s 756 mmHg 57%
    01:00 +16°C° 0 mm 3 m/s 756 mmHg 59%
    02:00 +14°C° 0 mm 3 m/s 756 mmHg 62%
    03:00 +13°C° 0 mm 3 m/s 756 mmHg 64%
    04:00 +14°C° 0 mm 2 m/s 756 mmHg 66%
    05:00 +13°C° 0 mm 2 m/s 756 mmHg 69%
    06:00 +15°C° 0 mm 2 m/s 757 mmHg 63%
    07:00 +18°C° 0 mm 2 m/s 757 mmHg 58%
    08:00 +20°C° 0 mm 2 m/s 757 mmHg 53%
    09:00 +21°C° 0 mm 2 m/s 757 mmHg 50%
    10:00 +23°C° 0 mm 2 m/s 757 mmHg 47%
    11:00 +25°C° 0 mm 2 m/s 757 mmHg 43%
    12:00 +25°C° 0 mm 2 m/s 757 mmHg 45%
    13:00 +25°C° 0 mm 2 m/s 757 mmHg 47%
    14:00 +25°C° 0 mm 2 m/s 756 mmHg 49%
    15:00 +25°C° 0 mm 2 m/s 756 mmHg 48%
    16:00 +26°C° 0 mm 2 m/s 756 mmHg 47%
    17:00 +26°C° 0 mm 2 m/s 756 mmHg 45%
    18:00 +25°C° 0 mm 2 m/s 756 mmHg 51%
    19:00 +23°C° 0 mm 1 m/s 756 mmHg 57%
    20:00 +21°C° 0 mm 1 m/s 756 mmHg 63%
    21:00 +21°C° 0 mm 1 m/s 757 mmHg 65%
    22:00 +20°C° 0 mm 1 m/s 757 mmHg 66%
    23:00 +19°C° 0 mm 1 m/s 757 mmHg 68%

    1 Iulie, Luni

    Timp Temperatura Precipitaţii Vânt Presiune Umiditate
    00:00 +19°C° 0 mm 1 m/s 757 mmHg 69%
    01:00 +19°C° 0 mm 1 m/s 757 mmHg 69%
    02:00 +18°C° 0 mm 1 m/s 757 mmHg 70%
    03:00 +18°C° 0 mm 1 m/s 757 mmHg 71%
    04:00 +18°C° 0 mm 1 m/s 757 mmHg 72%
    05:00 +18°C° 0 mm 1 m/s 756 mmHg 73%
    06:00 +20°C° 0 mm 1 m/s 756 mmHg 67%
    07:00 +23°C° 0 mm 1 m/s 756 mmHg 61%
    08:00 +25°C° 0 mm 1 m/s 756 mmHg 55%
    09:00 +26°C° 0 mm 1 m/s 756 mmHg 51%
    10:00 +28°C° 0 mm 1 m/s 756 mmHg 47%
    11:00 +30°C° 0 mm 2 m/s 756 mmHg 42%
    12:00 +30°C° 0 mm 2 m/s 755 mmHg 41%
    13:00 +31°C° 0 mm 3 m/s 755 mmHg 39%
    14:00 +33°C° 0 mm 3 m/s 755 mmHg 38%
    15:00 +33°C° 0 mm 3 m/s 754 mmHg 39%
    16:00 +33°C° 0 mm 4 m/s 754 mmHg 40%
    17:00 +33°C° 0 mm 4 m/s 754 mmHg 41%
    18:00 +30°C° 0 mm 4 m/s 754 mmHg 48%
    19:00 +28°C° 0 mm 4 m/s 754 mmHg 55%
    20:00 +26°C° 0 mm 3 m/s 753 mmHg 62%
    21:00 +25°C° 0 mm 3 m/s 753 mmHg 64%
    22:00 +24°C° 0 mm 3 m/s 753 mmHg 65%
    23:00 +22°C° 0 mm 3 m/s 753 mmHg 67%
    Arată mai mult